Weather History for KCKB - August, 2013

Change the Weather History Date:

Friday, August 2, 2013

  Actual Average Record
Temperature  
Mean Temperature 69 °F -  
Max Temperature 80 °F 83 °F 98 °F (1955)
Min Temperature 60 °F 60 °F 49 °F (1940)
Cooling Degree Days 4    
Growing Degree Days 19 (Base 50)    
Moisture  
Dew Point 60 °F    
Average Humidity 74    
Maximum Humidity 100    
Minimum Humidity 48    
Precipitation  
Precipitation 0.00 in - - ()
Sea Level Pressure  
Sea Level Pressure 29.97 in    
Wind  
Wind Speed 3 mph (SW)    
Max Wind Speed 12 mph    
Max Gust Speed -    
Visibility 9 miles    
Events      
Averages and records for this station are not official NWS values.
T = Trace of Precipitation, MM = Missing Value Source: NWS Daily Summary

Daily Weather History Graph

Daily Weather History Graph

Search for Another Location

Airport or City:

Trip Planner

Search our weather history database for the weather conditions in past years. The results will help you decide how hot, cold, wet, or windy it might be!

Date:

Astronomy

Aug. 02, 2013 Rise Set
Actual Time 6:22 AM EDT 8:31 PM EDT
Civil Twilight 5:52 AM EDT 9:01 PM EDT
Nautical Twilight 5:15 AM EDT 9:37 PM EDT
Astronomical Twilight 4:35 AM EDT 10:17 PM EDT
Moon 2:42 AM EDT (8/2) 5:27 PM EDT (8/2)
Length of Visible Light 15h 09m
Length of Day
14h 09m
Waning Crescent, 16% of the Moon is Illuminated
Aug 2
Waning Crescent
Aug 6
New
Aug 14
First Quarter
Aug 20
Full
Aug 28
Last Quarter

Hourly Weather History & Observations

Time (EDT) Temp. Dew Point Humidity Pressure Visibility Wind Dir Wind Speed Gust Speed Precip Events Conditions
12:36 AM 62.6 °F 60.8 °F 94% 29.97 in 1.8 mi Calm Calm - N/A   Clear
12:53 AM 62.1 °F 61.0 °F 96% 29.93 in 2.5 mi Calm Calm - N/A   Clear
1:16 AM 60.8 °F 60.8 °F 100% 29.97 in 6.0 mi Calm Calm - N/A   Clear
1:53 AM 62.1 °F 60.1 °F 93% 29.92 in 8.0 mi Calm Calm - N/A   Clear
2:53 AM 63.0 °F 60.1 °F 90% 29.91 in 10.0 mi Calm Calm - N/A   Overcast
3:53 AM 63.0 °F 60.1 °F 90% 29.92 in 10.0 mi South 4.6 mph - N/A   Partly Cloudy
4:53 AM 63.0 °F 60.1 °F 90% 29.94 in 9.0 mi Calm Calm - N/A   Overcast
5:53 AM 62.1 °F 60.1 °F 93% 29.94 in 10.0 mi Calm Calm - N/A   Mostly Cloudy
6:53 AM 62.1 °F 60.1 °F 93% 29.97 in 8.0 mi Calm Calm - N/A   Clear
7:53 AM 64.0 °F 61.0 °F 90% 29.98 in 10.0 mi South 3.5 mph - N/A   Mostly Cloudy
8:53 AM 66.9 °F 62.1 °F 84% 29.99 in 8.0 mi Variable 3.5 mph - N/A   Scattered Clouds
9:10 AM 68.0 °F 62.6 °F 83% 30.02 in 10.0 mi WSW 5.8 mph - N/A   Partly Cloudy
9:53 AM 70.0 °F 62.1 °F 76% 29.98 in 10.0 mi Variable 4.6 mph - N/A   Partly Cloudy
10:53 AM 73.9 °F 59.0 °F 59% 29.99 in 10.0 mi Variable 4.6 mph - N/A   Partly Cloudy
11:53 AM 75.0 °F 57.9 °F 55% 29.99 in 10.0 mi WSW 5.8 mph - N/A   Mostly Cloudy
12:53 PM 77.0 °F 55.9 °F 48% 29.99 in 10.0 mi West 9.2 mph - N/A   Partly Cloudy
1:53 PM 75.9 °F 55.9 °F 50% 29.99 in 10.0 mi West 6.9 mph - N/A   Scattered Clouds
2:53 PM 78.1 °F 57.0 °F 48% 29.99 in 10.0 mi West 8.1 mph - N/A   Scattered Clouds
3:53 PM 77.0 °F 55.9 °F 48% 30.00 in 10.0 mi West 10.4 mph - N/A   Mostly Cloudy
4:53 PM 78.1 °F 57.0 °F 48% 29.97 in 10.0 mi SW 6.9 mph - N/A   Scattered Clouds
5:53 PM 78.1 °F 57.9 °F 50% 29.97 in 10.0 mi West 6.9 mph - N/A   Partly Cloudy
6:53 PM 75.9 °F 59.0 °F 56% 29.97 in 10.0 mi SW 11.5 mph - N/A   Mostly Cloudy
7:53 PM 73.9 °F 60.1 °F 62% 29.96 in 10.0 mi SSW 6.9 mph - N/A   Clear
8:53 PM 71.1 °F 60.1 °F 68% 29.97 in 10.0 mi South 4.6 mph - N/A   Clear
9:53 PM 68.0 °F 61.0 °F 78% 29.99 in 10.0 mi SSW 5.8 mph - N/A   Clear
10:53 PM 69.1 °F 61.0 °F 75% 29.99 in 10.0 mi South 4.6 mph - N/A   Clear
11:53 PM 69.1 °F 60.1 °F 73% 29.99 in 10.0 mi South 5.8 mph - N/A   Clear